Weather History for Montreal Mirabel, QC

Change the Weather History Date:

Sunday, May 13, 2012

  Actual Average Record
Temperature  
Mean Temperature 62 °F -  
Max Temperature 71 °F 62 °F 75 °F (2011)
Min Temperature 50 °F 42 °F 26 °F (2005)
Degree Days  
Heating Degree Days 3    
Growing Degree Days 12 (Base 50)    
Moisture  
Dew Point 48 °F    
Average Humidity 67    
Maximum Humidity 100    
Minimum Humidity 25    
Precipitation  
Precipitation 0.00 in - - ()
Sea Level Pressure  
Sea Level Pressure 30.11 in    
Wind  
Wind Speed 4 mph ()    
Max Wind Speed 10 mph    
Max Gust Speed 17 mph    
Visibility 12.6 miles    
Events Rain    
Averages and records for this station are not official NWS values.
T = Trace of Precipitation, MM = Missing Value Source: Averaged Metar Reports

Daily Weather History Graph

Daily Weather History Graph

Search for Another Location

Airport:

Trip Planner

Search our weather history database for the weather conditions in past years. The results will help you decide how hot, cold, wet, or windy it might be!

Date:

Astronomy

May. 13, 2012 Rise Set
Actual Time 5:26 AM EDT 8:18 PM EDT
Civil Twilight 4:52 AM EDT 8:53 PM EDT
Nautical Twilight 4:08 AM EDT 9:37 PM EDT
Astronomical Twilight 3:16 AM EDT 10:30 PM EDT
Moon 1:52 AM EDT (5/13) 1:17 PM EDT (5/13)
Length of Visible Light 16h 01m
Length of Day
14h 52m
Last Quarter, 42% of the Moon is Illuminated
May 13
Last Quarter
May 20
New
May 28
First Quarter
Jun 4
Full
Jun 11
Last Quarter

Hourly Weather History & Observations

Time (EDT) Temp. Dew Point Humidity Pressure Visibility Wind Dir Wind Speed Gust Speed Precip Events Conditions
12:00 AM 59.0 °F 53.6 °F 82% 30.06 in 25.0 mi WSW 2.3 mph - N/A   Overcast
1:00 AM 59.0 °F 53.6 °F 82% 30.07 in 25.0 mi West 4.6 mph - N/A   Overcast
2:00 AM 59.0 °F 53.6 °F 82% 30.07 in 25.0 mi WNW 3.5 mph - N/A   Overcast
3:00 AM 59.0 °F 51.8 °F 77% 30.07 in 25.0 mi NNW 2.3 mph - N/A   Overcast
3:49 AM 59.0 °F 53.6 °F 82% - 15.0 mi WNW 6.9 mph - N/A Rain Light Rain Showers
4:00 AM 59.0 °F 53.6 °F 82% 30.09 in 15.0 mi WNW 3.5 mph - N/A Rain Light Rain Showers
5:00 AM 57.2 °F 53.6 °F 88% 30.11 in 15.0 mi West 3.5 mph - N/A Rain Light Rain Showers
6:00 AM 55.4 °F 55.4 °F 100% 30.12 in 8.0 mi WSW 3.5 mph - N/A Rain Light Rain Showers
7:00 AM 55.4 °F 55.4 °F 100% 30.14 in 5.0 mi West 4.6 mph - N/A Rain Light Rain Showers
8:00 AM 57.2 °F 55.4 °F 94% 30.15 in 8.0 mi WSW 6.9 mph - N/A Rain Light Rain Showers
8:16 AM 57.2 °F 55.4 °F 94% - 8.0 mi SW 5.8 mph - N/A   Overcast
9:00 AM 59.0 °F 55.4 °F 88% 30.15 in 10.0 mi WSW 6.9 mph - N/A   Overcast
10:00 AM 60.8 °F 53.6 °F 77% 30.14 in 15.0 mi West 5.8 mph - N/A   Overcast
11:00 AM 62.6 °F 53.6 °F 72% 30.14 in 20.0 mi SW 5.8 mph - N/A   Mostly Cloudy
12:00 PM 66.2 °F 50.0 °F 56% 30.14 in 20.0 mi NW 4.6 mph - N/A   Mostly Cloudy
1:00 PM 66.2 °F 44.6 °F 46% 30.13 in 25.0 mi SW 6.9 mph - N/A   Mostly Cloudy
2:00 PM 68.0 °F 42.8 °F 40% 30.12 in 25.0 mi SW 8.1 mph - N/A   Mostly Cloudy
3:00 PM 69.8 °F 41.0 °F 35% 30.11 in 25.0 mi WNW 8.1 mph - N/A   Mostly Cloudy
4:00 PM 69.8 °F 41.0 °F 35% 30.10 in 40.0 mi West 8.1 mph - N/A   Scattered Clouds
5:00 PM 71.6 °F 41.0 °F 33% 30.09 in 40.0 mi SSW 10.4 mph 17.3 mph N/A   Partly Cloudy
6:00 PM 71.6 °F 33.8 °F 25% 30.09 in 40.0 mi SW 9.2 mph - N/A   Partly Cloudy
7:00 PM 69.8 °F 32.0 °F 25% 30.09 in 40.0 mi WSW 4.6 mph - N/A   Partly Cloudy
8:00 PM 60.8 °F 39.2 °F 45% 30.10 in 35.0 mi SSW 5.8 mph - N/A   Partly Cloudy
9:00 PM 53.6 °F 41.0 °F 62% 30.11 in 25.0 mi SSE 5.8 mph - N/A   Partly Cloudy
10:00 PM 53.6 °F 41.0 °F 62% 30.12 in 25.0 mi Calm Calm - N/A   Partly Cloudy
11:00 PM 50.0 °F 42.8 °F 76% 30.13 in 25.0 mi NW 3.5 mph - N/A   Partly Cloudy